www.pogodaiklimat.ru

Погода и климат >> Архив погоды >> Гренада >> Аэропорт Морис Бишоп


ПОГОДА в Аэропорту Морис Бишоп

  • Прогноз погоды в Аэропорту Морис Бишоп
  • Монитор погоды в Аэропорту Морис Бишоп

АРХИВ ПОГОДЫ в Аэропорту Морис Бишоп

Время (UTC), дата Ветер
(напр.,м/с)
 
Видим.   Явления Облачность Т
(С)
Тd
(С)
f
(%)
Тe
(С)
Тes
(С)
Комфортность P
(гПа)
Po
(гПа)
Тmin
(С)
Tmax
(С)
R
(мм)
R24
(мм)
S
(см)
15 9.06 ЮВ 15 18 км пыль 9/3 540 м
[Cu Sc Ac trans Ci sp]
+29.4 +25.5 80 +43 +43 опасность
перегрева
1015.8 1014.8
18 9.06 В 17 17 км пыль {ливн. осадки} 8/4 540 м
[Cu Sc Ac trans Ci sp]
+29.4 +25.1 78 +43 +43 опасность
перегрева
1014.4 1013.4 +24.7 +30.0 14
21 9.06 В 15 18 км пыль 9/6 540 м
[Cu Sc Ac lent Ci sp]
+28.8 +24.9 79 +41 +41 опасность
перегрева
1014.4 1013.4
00 10.06 В 10 18 км пыль {ливн. осадки} 9/4 540 м
[Cu Sc Ci sp]
+27.1 +24.8 87 +39 +39 очень
душно
1015.2 1014.2 +24.7 +30.4 1
12 10.06 В 20 12 км пыль 9/5 570 м
[Cu Sc Ac trans Ci sp]
+28.8 +23.4 73 +39 +39 очень
душно
1016.6 1015.6 +26.7 +30.4
15 10.06 В 20 12 км пыль 9/3 630 м
[Cu med, cong Ci sp]
+29.4 +23.0 68 +39 +39 очень
душно
1016.9 1015.9
18 10.06 В 18 14 км пыль 9/1 660 м
[Cu med, cong Ci sp]
+29.7 +22.9 67 +40 +40 очень
душно
1015.4 1014.4 +26.3 +30.2
21 10.06 В 15 14 км пыль 9/1 660 м
[Cu Sc Ac trans Ci sp]
+28.5 +23.1 73 +38 +38 очень
душно
1014.7 1013.7
00 11.06 В 9 15 км пыль 9/1 660 м
[Cu med, cong Ci sp]
+27.3 +23.6 80 +37 +37 очень
душно
1015.4 1014.4 +27.3 +30.2
03 11.06 В 8 15 км пыль 8/4 570 м
[Cu med, cong Ci sp]
+27.3 +23.6 80 +37 +37 очень
душно
1015.9 1014.9
09 11.06 В 15 18 км пыль 5/3 540 м
[Cu hum Ci sp]
+27.1 +22.5 76 +36 +36 очень
душно
1014.8 1013.8
12 11.06 В 18 18 км пыль 6/1 660 м
[Cu med, cong Ci fib]
+29.4 +22.9 68 +39 +39 очень
душно
1015.5 1014.5 +26.6 +30.2
15 11.06 В 15 18 км пыль 8/1 660 м
[Cu med, cong Ci sp]
+31.4 +22.8 60 +41 +41 опасность
перегрева
1015.7 1014.7
21 11.06 В 13 18 км пыль 6/3 660 м
[Cu med, cong Ci sp]
+28.1 +23.8 78 +39 +39 очень
душно
1013.6 1012.6
00 12.06 В 10 18 км пыль {ливн. осадки} 6/3 540 м
[Cu med, cong Ci sp]
+26.8 +24.3 86 +37 +37 очень
душно
1014.2 1013.2 +26.5 +31.7 0.0
03 12.06 В 8 18 км пыль 5/3 570 м
[Cu med, cong Ci fib]
+26.9 +23.9 84 +37 +37 очень
душно
1014.9 1013.9
06 12.06 В 12 18 км пыль 4/3 540 м
[Cu Sc Ci fib]
+26.7 +23.9 85 +37 +37 очень
душно
1013.2 1012.2 +26.5 +31.7
09 12.06 В 13 18 км пыль 8/6 540 м
[Cu Sc Ac trans Ci fib]
+27.1 +23.4 80 +37 +37 очень
душно
1013.6 1012.6
12 12.06 В 18 20 км пыль 6/3 570 м
[Cu Sc Ac trans Ci sp]
+28.7 +23.6 74 +39 +39 очень
душно
1015.3 1014.3 +26.5 +31.7
18 12.06 В 18 20 км пыль 8/4 630 м
[Cu Sc Ac trans Ci sp]
+29.6 +23.5 70 +40 +40 очень
душно
1015.0 1014.0 +26.5 +30.2
21 12.06 В 16 24 км пыль 5/4 630 м
[Cu med, cong Ci fib]
+29.0 +23.2 71 +39 +39 очень
душно
1013.9 1012.9
00 13.06 В 12 22 км пыль 4/4 540 м
[Cu med, cong Ci fib]
+27.4 +23.4 79 +37 +37 очень
душно
1015.1 1014.1 +26.5 +30.3
03 13.06 В 8 22 км пыль 3/3 540 м
[Cu med, cong]
+27.0 +23.5 81 +37 +37 очень
душно
1015.5 1014.5
06 13.06 В 13 22 км пыль 4/3 540 м
[Cu med, cong Ci fib]
+27.0 +22.8 78 +36 +36 очень
душно
1014.0 1013.0 +26.5 +30.3
09 13.06 В 10 22 км пыль 4/3 540 м
[Cu med, cong Ci fib]
+27.0 +22.8 78 +36 +36 очень
душно
1014.6 1013.6
12 13.06 В 14 20 км пыль 4/3 540 м
[Cu hum Ci sp]
+29.0 +23.9 74 +40 +40 очень
душно
1016.1 1015.1 +26.6 +30.3
15 13.06 В 12 22 км пыль 4/4 570 м
[Cu med, cong]
+31.5 +23.8 64 +43 +43 опасность
перегрева
1016.4 1015.4
18 13.06 В 12 25 км 9/8 600 м
[Cu med, cong Ac lent Ci fib]
+30.8 +24.3 68 +43 +43 опасность
перегрева
1014.6 1013.6 +26.6 +32.4
21 13.06 В 7 19 км в посл. час ливневой дождь 8/6 540 м
[Sc diur, vesp Ac trans Ci fib]
+27.3 +24.4 84 +38 +39 очень
душно
1014.0 1013.0
00 14.06 В 3 18 км пыль {ливн. осадки} 6/5 540 м
[Cu Sc Ac trans Ci fib]
+25.8 +23.9 89 +35 +35 очень
душно
1014.6 1013.6 +25.7 +32.4 1
03 14.06 В 11 18 км пыль 9/9 540 м
[Cu Sc Ci fib]
+27.2 +25.3 89 +39 +39 очень
душно
1015.8 1014.8
06 14.06 В 13 15 км пыль {дождь} 9/8 540 м
[Cu Sc Ci fib]
+27.3 +24.0 82 +38 +38 очень
душно
1014.3 1013.3 +25.7 +32.4 0.1
09 14.06 В 13 18 км пыль {дождь} 8/4 540 м
[Cu Sc Ci fib]
+27.3 +23.6 80 +37 +37 очень
душно
1014.5 1013.5
12 14.06 В 16 17 км пыль 8/3 540 м
[Cu Sc Ac lent Ci fib]
+28.7 +24.2 77 +40 +40 очень
душно
1015.7 1014.7 +25.7 +32.4
15 14.06 В 13 18 км пыль 3/3 540 м
[Cu Sc Ac trans Ci fib]
+29.9 +24.5 73 +42 +42 опасность
перегрева
1016.4 1015.4
18 14.06 В 12 18 км осадки на расстоянии 5/4 540 м
[Cu Sc Ac trans Ci sp]
+29.7 +24.7 75 +42 +42 опасность
перегрева
1014.7 1013.7 +25.7 +30.9
21 14.06 В 10 18 км пыль 4/3 540 м
[Cu med, cong Ac lent]
+30.2 +23.6 68 +41 +41 опасность
перегрева
1013.2 1012.2
00 15.06 В 8 18 км пыль 9/8 540 м
[Cu Sc Ci sp]
+27.7 +23.3 77 +37 +37 очень
душно
1014.2 1013.2 +25.7 +31.1
12 15.06 В 10 8000 м осадки на расстоянии {ливн. осадки} 9/6 210 м
[Cu Sc Ci sp]
+27.0 +25.5 92 +40 +40 очень
душно
1015.4 1014.4 +25.4 +31.1 5
15 15.06 В 16 15 км пыль {ливн. осадки} 9/8 540 м
[Cu Sc Ci sp]
+28.3 +25.2 83 +41 +41 опасность
перегрева
1015.6 1014.6
18 15.06 В 15 15 км пыль {ливн. осадки} 9/3 540 м
[Cu Sc Cs]
+29.5 +24.6 75 +42 +42 опасность
перегрева
1014.0 1013.0 +25.4 +29.8 5
21 15.06 В 14 18 км пыль {ливн. осадки} 9/3 540 м
[Cu Sc Ac lent Cs]
+28.3 +25.5 85 +42 +42 опасность
перегрева
1012.9 1011.9
00 16.06 В 13 18 км пыль {ливн. осадки} 9/4 540 м
[Cu Sc Ac lent Ci sp]
+27.6 +25.0 86 +40 +40 очень
душно
1013.9 1012.9 +25.4 +29.8 0.9
06 16.06 В 12 18 км пыль {ливн. осадки} 9/3 540 м
[Cu Sc Ci sp]
+27.3 +24.7 86 +39 +39 очень
душно
1013.0 1012.0 +25.4 +29.8 0.5
09 16.06 В 15 18 км пыль 8/3 540 м
[Cu Sc Ci sp]
+27.3 +25.0 87 +39 +39 очень
душно
1013.8 1012.8
12 16.06 В 16 18 км пыль 10/9 540 м
[Cu Sc Ac As Cs]
+28.3 +24.6 80 +40 +40 очень
душно
1015.1 1014.1 +26.7 +29.8

 

Местоположение метеостанции Аэропорт Морис Бишоп (Гренада): широта 12.00 долгота -61.78 высота над уровнем моря 7 м.

В архиве по умолчанию представлена погода в Аэропорту Морис Бишоп за последнюю неделю. Архивные данные за месяц целиком и за предыдущие месяцы, начиная с января 2011 года, Вы можете получить, выбрав интересующий диапазон дат из раскрывающегося списка и нажав кнопку "Ввод!".


*Определитесь, кто Вы:
робот инопланетянин человек

Внимание! Время в таблицах - всемирное. Для получения местного времени необходимо прибавить поправку, которая равна -4 ч.

Смотрите также архив погоды в соседних городах и на ближайших метеорологических станциях:

Погода в Краун-Пойнте (Тринидад и Тобаго) (140 км)
Погода в Арнос Вейл (Сент-Винсент и Гренадины) (141 км)
Погода в Аэропорту Пиарко (Тринидад и Тобаго) (161 км)
Погода в Гуирии (Венесуэла) (168 км)
Погода в Аэропорту Хеванорра (Сент-Люсия) (212 км)
Погода в Виги (Сент-Люсия) (239 км)
Погода в Порламаре (Венесуэла) (266 км)
Погода в Грантли Адамсе (Барбадос) (277 км)
Погода в Мэтьюрине (Венесуэла) (293 км)
Погода в Аэропорту Мартиники (Мартиника) (301 км)

Пояснения к столбцам:

Ветер - указаны скорость ветра в м/с - средняя за 10 мин, порывы в срок и между сроками (в фигурных скобках) и направление, откуда дует ветер: С - северный, СВ - северо-восточный, В - восточный, ЮВ - юго-восточный, Ю - южный, ЮЗ - юго-западный, З - западный, СЗ - северо-западный.
Видимость - горизонтальная дальность видимости в метрах или километрах. При видимости от 1 до 10 км при отсутствии осадков обычно наблюдается дымка, при ухудшении видимости до 1 км и менее - туман. В сухую погоду видимость может ухудшаться дымом, пылью или мглою.
Явления - указаны атмосферные явления, наблюдавшиеся в срок или в последний час перед сроком; фигурными скобками обозначены явления, наблюдавшиеся между сроками (за 1-3 часа до срока); квадратными скобками обозначены град или гололедные отложения с указанием их диаметра в мм.
Облачность - указаны через наклонную черту общая и нижняя облачность в баллах и высота нижней границы облаков в метрах; квадратными скобками обозначены формы облаков: Ci - перистые, Cs - перисто-слоистые, Cc - перисто-кучевые, Ac - высококучевые, As - высокослоистые, Sc - слоисто-кучевые, Ns - слоисто-дождевые, Cu - кучевые, Cb - кучево-дождевые. Подробнее классификацию облаков см. в Атласе облаков (PDF).
T - Температура воздуха - температура, измеренная на высоте 2 м над землей.
Td - Температура точки росы - температура, при понижении до которой содержащийся в воздухе водяной пар достигнет насыщения.
f - Относительная влажность воздуха - влажноcть воздуха, измеренная на высоте 2 м над землей.
Te - Эффективная температура - температура, которую ощущает одетый по сезону человек в тени. Характеристика душности погоды. При расчете учитывается влияние влажности воздуха и скорости ветра на теплоощущения человека.
Tes - Эффективная температура на солнце - температура, которую ощущает человек, с поправкой на солнечный нагрев. Характеристика знойности погоды. Зависит от высоты солнца над горизонтом, облачности и скорости ветра. Ночью, в пасмурную погоду, а также при ветре 12 м/с и более поправка равна нулю.
P - Атмосферное давление - приведенное к уровню моря атмосферное давление.
Po - Атмосферное давление - измеренное на уровне метеостанции атмосферное давление.
Tmin - Минимальная температура - минимум температуры воздуха на высоте 2 м над землей.
Tmax - Максимальная температура - максимум температуры воздуха на высоте 2 м над землей.
R - Количество осадков - Количество выпавших осадков за период времени, мм. При наведении курсора мыши на число - период времени, за который выпало указанное количество осадков.
R24 - Количество осадков - Количество выпавших осадков за 24 часа, мм.
S - Снежный покров - Высота снежного покрова, см. При наведении курсора мыши на число - состояние снежного покрова и степень покрытия местности в баллах.